Location: Newark
(13.9550°N, 109.0422°E)
Time: 09:44:38
(UTC+00:00)

N. Korean satellite - Visible Passes

Search period start: 18 October 2019 00:00
Search period end: 28 October 2019 00:00
Orbit: 455 x 508 km, 97.2° (Epoch: 18 October)

Date Brightness Start Highest point End Pass type
(mag) Time Alt. Az. Time Alt. Az. Time Alt. Az.
18 Oct 10.3 21:33:21 10° ENE 21:35:01 13° E 21:36:41 10° SE visible
19 Oct 10.3 11:01:32 10° WSW 11:02:55 12° W 11:04:19 10° WNW visible
21 Oct 9.4 21:49:30 10° NE 21:52:30 24° E 21:55:31 10° SSE visible
23 Oct 10.0 10:52:55 10° SW 10:55:04 16° W 10:57:14 10° WNW visible
24 Oct 8.0 22:06:24 10° NNE 22:09:58 45° E 22:13:32 10° S visible
25 Oct 9.9 21:42:04 10° NE 21:44:41 18° E 21:47:18 10° SE visible
27 Oct 9.6 10:44:32 10° SSW 10:47:10 21° W 10:49:50 10° NW visible
